Vorticity
nan nan nan nan nan nan nan nan nan nan nan nan nan nan nan nan nan nan nan nan nan nan nan nan nan nan nan nan nan nan nan nan nan nan nan nan nan nan nan nan nan nan nan nan nan
nan 5 6 6 6 6 6 6 7 8 8 7 6 9 10 9 9 7 7 3 -1 2 5 8 6 8 8 10 9 7 2 6 9 4 4 3 3 7 7 8 7 6 5 11 nan
nan 5 6 7 6 7 7 6 6 8 8 8 6 6 8 8 9 11 12 13 8 7 6 6 7 8 8 7 8 7 6 4 7 8 8 7 6 5 6 8 9 4 6 5 nan
nan 6 6 6 6 7 6 6 6 7 9 8 6 7 8 11 5 5 10 18 22 14 2 5 7 9 8 7 6 6 14 8 4 5 7 6 5 8 7 3 3 4 6 6 nan
nan 6 7 6 7 7 6 5 6 6 6 7 7 9 9 8 7 4 4 12 21 14 5 6 5 7 7 5 9 9 5 6 8 6 6 6 6 9 6 5 5 8 6 6 nan
nan 9 8 7 7 6 6 6 6 7 6 5 8 8 7 3 9 6 8 9 9 10 10 6 7 4 7 9 7 6 7 7 8 10 9 10 5 4 10 7 7 8 7 8 nan
nan 10 8 8 7 7 6 6 9 9 6 6 7 7 6 6 6 3 8 9 8 8 8 7 8 7 8 7 8 7 7 13 12 9 6 12 8 11 3 5 6 7 9 8 nan
nan 10 10 7 8 7 6 9 8 7 8 7 6 8 5 9 6 7 9 7 11 9 8 10 7 6 4 5 8 12 9 11 13 9 9 7 8 16 12 7 7 8 7 7 nan
nan 10 11 9 7 7 9 9 6 8 10 6 6 7 7 9 12 11 8 8 8 11 11 9 8 5 8 8 6 9 6 3 10 12 12 -3 6 10 11 9 7 8 8 7 nan
nan 8 11 11 7 8 10 6 5 9 11 6 5 8 13 10 9 12 10 9 6 8 10 9 8 8 6 7 6 5 7 7 8 4 10 9 6 4 9 10 6 7 8 8 nan
nan 18 13 11 8 8 3 1 7 11 12 6 2 2 8 12 8 9 10 7 8 9 10 5 6 10 7 3 0 6 8 4 4 5 8 11 8 7 6 6 8 6 6 8 nan
nan 23 15 12 10 3 -3 5 7 8 13 8 7 5 3 8 8 10 9 8 8 6 3 6 12 9 9 7 6 4 3 5 6 7 1 7 3 6 7 9 11 7 7 6 nan
nan 23 24 14 7 3 4 4 6 7 9 15 14 10 10 8 6 9 5 6 8 10 8 2 8 5 3 6 11 3 10 7 5 9 10 11 14 17 15 12 10 9 8 10 nan
nan 21 29 14 6 3 9 9 5 7 12 14 9 12 12 7 15 17 4 1 8 9 8 11 9 4 5 10 8 9 15 10 6 7 11 3 18 19 17 11 11 13 8 10 nan
nan 18 33 13 -1 9 13 11 4 4 8 13 9 11 14 6 7 14 13 8 10 5 3 7 15 18 12 11 1 13 10 9 8 4 6 4 7 15 12 7 11 13 13 12 nan
nan 20 23 7 2 15 15 3 3 8 11 7 8 11 6 7 5 9 12 6 11 14 6 6 5 12 15 16 9 5 10 9 12 13 8 16 8 1 7 11 13 11 13 10 nan
nan 14 18 14 14 14 2 -0 6 7 13 11 9 11 8 10 8 7 8 7 3 11 12 13 7 4 9 12 19 7 6 14 16 10 11 16 8 1 5 7 5 6 12 13 nan
nan 13 19 16 18 5 -3 4 8 9 10 10 14 10 8 7 8 10 7 9 8 4 9 7 13 20 9 5 11 14 -0 1 7 9 13 10 7 15 11 5 5 6 9 14 nan
nan 14 17 17 9 3 5 5 9 9 14 9 5 6 10 6 10 11 8 9 17 11 2 5 8 12 15 15 4 9 14 4 3 8 11 4 6 12 12 10 13 16 15 15 nan
nan 10 20 22 3 2 5 8 7 11 12 10 7 9 7 12 9 9 8 9 16 10 3 3 13 14 16 8 7 8 10 12 13 8 8 10 13 17 15 12 4 11 13 13 nan
nan 13 22 11 3 7 6 9 12 10 7 10 10 9 8 12 8 6 4 12 17 17 8 -0 8 6 8 17 6 2 3 6 9 10 7 11 9 15 14 14 19 15 17 15 nan
nan 15 14 4 4 10 15 9 9 8 5 9 11 10 12 8 8 9 8 9 11 13 12 5 6 13 7 10 16 8 4 5 1 10 3 5 7 6 13 24 20 14 11 11 nan
nan 18 15 4 3 13 9 7 10 10 10 10 10 8 8 6 12 11 9 11 10 6 10 10 3 8 15 12 16 14 14 10 -0 6 13 1 5 -9 -8 19 24 19 9 9 nan
nan 10 11 6 11 13 6 10 5 7 9 8 9 9 9 11 7 4 7 11 13 7 11 4 4 8 0 1 9 18 17 12 5 -4 8 4 -2 -6 -2 8 17 16 14 12 nan
nan 10 11 12 16 10 7 10 5 5 10 8 7 10 4 9 11 9 6 7 13 20 10 3 8 14 7 4 -1 11 19 13 8 2 -3 8 10 7 6 6 17 13 12 10 nan
nan 9 12 18 14 10 7 8 11 8 7 6 9 12 5 4 4 6 13 10 9 14 6 3 9 10 13 30 27 10 15 13 12 5 -1 4 9 7 9 21 22 13 9 7 nan
nan nan nan nan nan nan nan nan nan nan nan nan nan nan nan nan nan nan nan nan nan nan nan nan nan nan nan nan nan nan nan nan nan nan nan nan nan nan nan nan nan nan nan nan nan
CAPE
0 0 4 4 10 9 3 0 2 2 1 0 7 27 28 24 45 7 1 0 0 0 0 0 0 0 0 0 0 0 0 0 0 0 0 0 0 0 0 0 0 0 0 0 0
11 0 3 8 6 14 9 2 0 0 4 0 0 4 20 2 2 6 0 20 38 23 0 0 0 0 0 0 0 6 0 0 0 0 0 0 0 0 0 0 0 0 0 0 0
28 13 0 13 15 9 4 6 0 0 3 0 0 0 0 0 0 0 0 7 47 54 0 0 0 0 0 0 0 1 2 0 0 0 0 0 0 0 0 0 0 0 0 0 0
45 28 7 3 29 9 2 5 0 0 1 1 0 0 0 0 0 0 0 0 4 14 0 0 0 0 0 0 0 0 0 0 0 0 0 0 0 0 0 0 0 0 0 0 0
70 41 17 0 6 19 0 7 0 0 0 0 0 9 0 0 0 0 0 0 0 15 21 2 0 0 0 0 0 0 0 0 0 0 0 0 0 0 0 0 0 0 0 0 0
109 85 50 18 0 17 9 8 11 0 0 0 0 8 0 0 0 0 0 0 0 3 0 3 1 0 2 0 0 0 0 0 0 0 0 0 0 0 0 0 0 0 0 0 0
120 131 83 44 2 17 13 28 21 7 0 0 0 0 1 0 0 0 0 0 0 0 0 0 7 9 3 4 0 0 0 0 0 0 0 0 0 0 0 0 0 0 0 0 0
141 126 103 71 36 3 16 42 18 21 18 6 0 0 0 0 0 0 0 0 0 0 0 0 0 4 0 0 0 2 0 0 0 0 0 0 0 0 0 0 0 0 0 0 0
131 129 106 86 58 53 56 38 7 10 19 40 0 0 0 0 0 0 0 0 0 0 0 0 0 0 0 18 6 0 1 0 0 0 0 0 0 0 0 0 0 0 0 0 0
94 118 94 88 79 79 64 18 6 7 29 57 1 0 0 0 0 0 0 0 0 0 0 0 0 0 10 13 0 0 3 0 0 0 0 0 0 0 0 0 0 0 0 0 0
86 83 92 96 95 107 28 0 0 1 20 1 0 0 0 0 0 0 0 0 0 0 0 0 1 0 0 0 0 0 0 0 0 0 0 0 0 0 0 0 0 0 0 0 0
22 92 91 108 118 100 0 0 0 0 1 0 0 0 0 0 0 0 0 0 0 0 0 0 3 0 0 0 0 2 2 0 0 0 0 0 0 0 0 0 0 0 0 0 0
40 20 89 126 96 38 0 0 0 0 0 0 0 2 1 0 21 1 0 0 0 0 0 0 0 0 0 0 0 0 0 2 2 0 0 0 0 0 0 0 0 0 0 0 0
47 1 132 103 81 11 6 0 0 2 0 0 0 0 13 37 14 2 1 0 0 0 0 1 0 0 0 0 0 5 0 0 0 29 2 0 0 0 0 0 0 0 0 0 0
60 1 74 103 0 0 0 0 0 6 0 0 0 3 18 9 0 0 4 8 7 0 0 0 0 0 1 0 0 1 0 2 15 6 0 0 0 0 0 0 0 0 0 0 0
83 0 66 4 0 0 0 0 9 0 0 2 0 7 18 15 17 0 2 21 6 16 15 0 2 0 0 0 0 8 16 21 17 10 7 0 0 0 0 0 0 0 0 0 0
125 7 69 1 0 0 0 0 0 0 0 1 2 0 0 1 6 12 2 23 30 29 8 5 10 3 0 0 0 0 32 10 3 20 0 0 0 0 0 0 0 0 0 0 0
113 47 38 2 0 0 7 0 0 0 0 0 0 2 0 0 2 2 18 15 3 8 1 0 0 0 0 3 0 0 1 11 10 1 0 0 0 0 0 0 0 0 0 0 0
82 27 77 5 0 19 15 1 0 0 0 0 1 3 0 1 1 10 15 1 0 3 9 0 0 0 0 0 0 1 17 0 1 3 19 0 0 0 0 0 0 0 0 0 0
55 53 66 40 0 11 0 0 0 0 0 0 0 0 0 1 5 15 3 0 1 0 0 0 0 0 0 0 0 0 0 3 14 0 9 0 0 0 0 0 0 0 0 0 0
0 44 73 23 7 3 0 10 0 0 0 0 0 1 0 2 2 1 0 0 0 0 0 0 8 0 7 2 2 11 15 9 0 0 0 0 0 0 0 0 0 0 0 0 0
33 3 53 0 0 3 8 0 0 0 0 0 0 0 8 0 10 0 0 0 0 0 1 0 18 4 0 0 6 7 0 5 3 0 0 17 0 0 0 0 0 0 0 0 0
10 35 27 7 0 1 9 0 1 1 0 0 0 1 10 11 42 0 0 0 0 0 0 4 17 2 0 6 12 20 14 6 0 0 0 0 0 0 0 0 0 0 0 0 0
15 3 42 11 16 2 7 9 1 5 1 0 3 10 22 33 15 3 0 0 0 0 0 1 10 2 0 0 4 15 13 6 0 0 0 0 0 0 0 0 0 0 0 0 0
9 6 4 3 8 2 0 0 2 20 3 12 12 13 17 27 8 10 0 0 0 0 0 1 3 3 3 3 8 8 0 6 4 0 0 0 0 0 0 0 0 0 0 0 0
8 32 13 3 9 5 1 4 3 13 7 7 17 1 8 23 2 0 0 0 0 0 6 16 3 6 0 3 4 24 8 1 9 0 1 10 0 0 0 0 0 0 0 0 0
28 15 3 16 11 13 9 8 2 9 4 1 1 5 14 4 2 0 0 0 0 1 8 8 8 7 5 9 10 13 5 0 4 0 0 2 0 0 0 0 0 0 0 0 0